Location: Bemmer
(51.5498°N, 5.6249°E)
Time: 12:43:51
(UTC+00:00)

Cosmos 2184 Rocket - Pass Details

Date: 03 March 2021
Orbit: 960 x 1001 km, 82.9° (Epoch: 16 April)

Event Time Altitude Azimuth Distance (km) Brightness Sun altitude
Rises 17:55:15 0° 179° (S) 3,632 7.0 -6.0°
Reaches altitude 10° 17:57:44 10° 177° (S) 2,691 6.3 -6.4°
Maximum altitude 18:03:50 69° 95° (E) 1,032 4.0 -7.4°
Drops below altitude 10° 18:10:02 10° 14° (NNE) 2,729 6.2 -8.3°
Sets 18:12:34 0° 12° (NNE) 3,686 6.9 -8.7°
